GFSSGP_sfc_dewp_102.txt.gz
Dewpoint
55 51 43 34 26 23 21 20 20 17 24 25 25 24 23 23 25 25 53 64 68 69 71 71 71 71 71 72 72 72 72 72 72 72 71 71 71 70 70 70 70 71 71 69 69 70 70 69 70
43 41 35 29 24 22 22 22 19 20 25 26 26 26 25 38 53 56 56 66 68 68 70 71 70 71 71 71 72 72 72 72 72 72 71 71 71 70 70 70 70 70 70 67 68 69 69 69 69
43 42 32 26 26 23 23 20 17 20 25 21 21 26 27 38 55 56 59 65 69 68 69 71 70 70 71 71 71 71 71 72 71 71 71 71 71 70 71 70 70 69 68 66 69 68 69 68 68
40 35 30 23 24 26 25 25 22 17 21 21 22 26 31 47 56 58 60 60 67 67 68 69 70 70 71 71 71 71 71 71 71 71 71 71 71 71 70 70 69 69 69 68 68 69 68 68 67
31 29 25 25 24 24 24 21 20 18 19 28 24 27 31 54 56 57 58 61 65 67 68 68 69 70 71 71 71 71 71 70 71 70 69 69 69 68 69 69 69 68 68 68 68 68 67 66 65
28 26 22 21 22 21 21 22 19 22 21 23 25 29 43 54 54 58 62 62 65 67 67 68 69 69 71 71 70 70 69 69 69 68 67 65 66 67 67 68 68 67 67 66 67 66 65 65 64
28 25 22 21 21 21 22 23 23 21 19 20 22 27 46 51 56 61 63 63 64 67 66 66 67 68 68 68 69 68 67 68 67 67 66 65 66 65 67 66 67 67 67 67 66 65 64 64 62
28 25 24 20 19 19 21 17 21 18 17 24 22 27 46 52 58 62 62 62 62 64 65 65 65 66 65 66 66 65 65 66 66 66 65 64 64 65 66 66 67 67 66 66 66 65 64 62 61
27 23 21 19 19 20 23 18 19 18 17 19 20 27 31 56 59 60 61 60 61 63 63 64 65 64 65 64 66 65 66 66 66 65 64 62 61 65 65 65 66 66 66 65 65 64 62 61 61
25 21 21 22 21 22 24 22 18 15 15 17 24 53 56 57 57 58 59 60 60 61 62 62 63 64 65 64 63 64 64 65 64 64 63 62 62 61 61 65 65 66 65 65 64 63 61 57 55
23 23 23 23 23 24 23 21 18 16 16 19 19 49 56 56 56 56 58 60 60 61 62 61 62 64 65 64 62 62 63 62 61 61 60 61 61 63 63 65 64 64 64 62 61 60 54 52 52
25 24 23 22 23 22 22 22 19 19 18 20 21 27 54 54 54 54 55 57 61 61 61 60 61 63 62 63 62 62 62 62 60 61 59 59 61 61 63 63 62 61 61 59 57 55 52 52 51
26 26 25 23 23 22 21 19 19 19 21 23 22 22 46 50 52 53 53 58 61 61 60 60 60 61 62 61 61 61 61 62 62 61 60 60 62 61 63 61 60 59 58 56 53 51 50 50 52
28 27 25 23 22 22 22 23 22 22 23 22 26 24 27 38 46 53 55 58 61 61 60 60 60 60 61 60 62 62 61 61 62 61 60 60 62 62 61 60 58 57 55 53 52 49 49 49 51
28 25 26 26 25 23 23 22 21 22 24 24 24 23 23 38 53 53 54 56 60 61 60 59 59 59 59 60 61 62 62 61 61 61 60 61 62 61 59 58 55 54 51 51 52 49 49 49 50
28 27 24 24 25 24 24 21 24 25 24 23 24 23 25 38 53 54 54 56 60 60 59 58 60 58 59 59 60 62 61 61 62 62 61 61 62 59 56 54 53 52 48 51 52 50 50 50 50
27 24 25 25 26 24 24 22 24 24 24 23 23 23 28 39 53 54 54 57 58 58 58 57 57 58 58 61 59 62 60 62 62 62 62 63 61 58 53 52 51 52 48 52 52 51 50 50 49
24 25 24 24 24 24 23 23 23 23 22 21 24 25 29 46 53 53 55 57 57 57 57 57 57 57 59 60 59 60 61 60 62 62 61 64 60 56 52 53 51 50 50 54 53 51 50 50 49
26 25 24 25 24 21 20 22 23 27 26 22 24 27 28 44 52 53 56 57 56 56 56 56 56 58 59 58 58 58 59 60 60 62 62 62 60 56 52 54 52 53 52 54 52 50 49 49 49
24 24 23 23 22 21 20 20 26 28 26 24 23 24 29 50 51 54 55 56 56 56 55 56 56 58 58 58 57 57 59 60 60 61 61 61 61 58 54 55 53 56 53 54 51 50 49 49 49
13 19 21 21 20 19 20 22 27 28 28 29 27 24 36 50 51 53 54 54 55 55 55 56 56 57 58 58 58 59 59 60 59 60 59 59 59 58 56 57 55 56 55 53 51 49 48 48 48
7 10 13 14 16 15 27 21 24 28 28 28 27 27 37 49 51 53 54 54 54 55 55 56 56 56 57 58 58 58 58 58 58 59 59 57 57 57 56 56 56 55 54 53 51 49 49 48 47
10 14 16 15 15 19 23 25 25 27 27 27 27 27 32 49 51 52 53 53 55 56 56 55 56 56 56 57 57 57 57 58 59 59 58 56 56 56 58 57 56 55 55 55 53 51 51 49 50
14 14 15 17 21 20 26 27 23 26 26 27 27 28 29 47 50 51 53 54 54 55 55 56 56 56 56 56 56 56 56 56 56 57 57 56 56 56 57 58 57 56 56 56 56 56 53 53 52
19 18 18 19 20 19 23 24 22 27 28 28 28 29 30 39 50 51 53 53 53 54 54 56 56 56 57 56 56 56 56 55 55 56 56 55 55 56 56 56 57 56 56 56 57 57 56 55 55
17 19 21 15 21 21 23 23 28 34 34 33 32 31 42 48 51 51 52 53 53 53 54 56 56 56 56 56 55 55 55 55 55 55 55 55 55 55 56 55 54 55 55 56 57 57 57 56 55
15 20 23 22 28 24 25 28 31 36 37 36 31 31 44 48 50 51 52 53 54 54 54 55 56 56 56 57 56 54 54 54 54 54 55 55 55 56 55 55 54 54 54 56 57 56 56 56 56
19 23 20 22 16 16 22 25 28 34 36 35 35 35 41 47 49 51 52 53 54 54 54 55 55 56 56 57 56 55 54 53 53 54 53 53 55 55 55 54 53 53 54 55 55 55 56 56 56
18 18 22 24 24 17 19 21 35 36 37 37 39 38 38 40 48 49 51 53 54 54 54 53 54 53 55 57 56 55 54 54 53 52 51 51 52 53 54 53 53 52 54 55 55 55 55 55 55
31 22 26 24 22 24 24 22 35 35 38 42 40 40 39 35 36 48 49 53 53 53 54 53 53 53 53 55 57 56 55 54 53 52 52 52 51 52 53 53 52 51 52 53 55 54 54 55 54

GFSSGP_sfc_dewp_105.txt.gz
Dewpoint
56 49 40 33 25 24 21 20 20 20 23 24 25 24 23 23 23 23 49 66 68 69 71 70 71 71 71 72 72 72 72 72 72 72 72 72 72 72 72 72 71 71 71 70 70 71 70 70 70
44 42 33 29 24 21 19 24 21 21 25 28 27 26 27 34 51 54 57 65 68 69 70 70 70 71 71 71 72 72 72 72 72 71 71 71 71 71 71 71 71 70 68 70 70 70 69 70 70
41 41 34 25 25 22 21 22 20 19 23 24 23 25 34 39 53 55 57 66 67 69 70 70 70 70 71 71 71 72 72 71 71 71 71 71 71 70 71 70 70 69 67 67 70 70 69 69 68
39 37 31 24 23 26 24 25 27 20 19 21 22 26 31 50 53 57 61 67 67 67 70 70 69 70 71 71 71 71 72 71 71 71 70 71 70 71 70 70 69 68 68 69 69 69 68 68 67
30 29 25 24 23 24 25 24 25 20 19 26 23 26 32 52 57 59 61 67 66 67 68 69 68 69 71 71 71 71 71 71 70 69 68 67 69 69 68 68 69 68 68 69 68 68 68 67 66
27 27 23 23 22 23 22 23 23 23 21 21 25 29 37 52 57 58 60 64 66 67 67 68 69 70 70 70 71 70 70 70 69 68 68 68 67 67 66 67 67 68 67 67 67 67 67 65 64
27 25 22 21 21 21 22 23 23 21 19 19 24 34 46 52 56 61 62 64 65 66 66 66 67 69 70 69 69 69 69 68 67 66 66 66 66 66 66 65 66 66 66 67 66 66 65 63 63
27 26 27 22 21 20 22 20 19 19 16 22 24 38 43 51 59 62 62 62 64 65 65 65 65 66 66 67 68 68 68 66 66 66 64 65 65 65 63 65 65 65 66 66 66 65 64 62 62
27 25 23 21 19 20 23 22 24 19 17 18 21 36 39 56 61 61 60 59 60 63 63 64 64 64 64 65 66 67 66 66 66 65 64 64 64 65 65 64 64 65 66 66 65 64 62 61 62
27 23 24 24 21 21 24 23 24 19 19 17 20 52 55 58 59 59 59 59 59 61 61 63 63 63 63 65 64 64 65 66 65 65 64 63 63 63 63 64 64 64 65 65 64 63 61 60 59
25 24 25 23 24 24 24 23 24 19 19 20 19 33 55 57 58 57 58 59 59 61 61 61 62 63 64 63 63 64 65 65 64 64 63 62 63 63 62 63 64 64 64 62 62 60 54 55 57
25 24 25 25 24 23 22 23 23 20 20 23 22 37 55 55 56 57 57 58 59 60 61 61 61 63 64 63 62 62 63 62 62 63 62 61 61 61 62 63 64 63 62 60 59 55 52 53 54
28 27 27 27 26 24 24 22 22 20 21 22 24 26 54 55 55 56 56 57 60 60 60 60 60 62 63 63 62 61 62 62 61 61 61 61 60 61 61 63 63 61 60 59 57 52 52 52 53
28 28 28 28 28 26 23 23 22 23 24 23 27 26 45 54 54 54 54 55 59 61 60 59 60 60 61 61 62 61 61 62 61 61 60 60 61 60 61 62 61 60 59 57 55 51 51 51 53
28 27 27 26 26 25 25 23 21 23 25 24 25 25 25 43 51 51 53 54 59 61 60 59 59 59 59 59 62 62 61 61 62 61 60 59 61 61 62 61 60 59 57 54 52 50 50 51 52
27 28 25 26 26 25 23 21 24 26 25 24 26 25 25 26 40 48 52 55 60 60 59 58 60 58 58 58 62 62 62 61 61 61 61 60 61 61 61 60 58 56 53 53 51 49 49 51 52
26 23 24 26 27 25 24 22 24 25 27 24 25 25 23 25 40 50 53 57 59 59 59 58 57 57 58 58 59 62 61 60 61 61 61 61 60 62 61 58 55 53 52 52 50 49 49 50 52
21 25 25 24 25 25 24 23 24 25 24 26 25 24 25 30 39 53 55 58 59 58 58 57 56 56 57 59 59 60 61 61 62 62 61 60 62 60 59 55 52 50 50 51 49 49 50 50 51
22 25 24 25 25 24 23 22 22 22 23 28 27 25 25 31 53 54 56 56 56 56 56 56 56 56 57 59 58 58 59 60 61 62 61 61 60 58 55 51 50 48 48 51 50 49 49 49 50
25 24 24 25 25 25 23 22 22 23 26 28 26 28 25 46 52 54 55 55 55 55 55 55 55 57 57 57 56 58 59 60 59 61 61 61 58 55 54 50 48 48 51 53 50 49 49 49 50
12 18 22 23 24 22 20 18 18 22 28 29 30 30 26 44 51 53 55 55 55 55 55 55 56 57 57 57 57 58 58 60 59 59 61 59 57 55 54 50 49 49 53 52 50 49 48 48 48
7 11 13 16 19 16 21 14 20 25 25 27 29 29 28 43 50 53 54 54 54 55 55 55 57 55 56 57 57 57 56 57 59 59 60 60 58 57 57 52 52 52 54 53 51 50 49 49 47
10 13 13 13 13 13 12 22 19 27 27 27 26 28 29 43 49 52 54 54 54 54 55 56 56 55 55 57 57 56 58 58 59 58 57 59 59 58 59 57 56 56 55 55 52 50 49 49 48
16 15 16 18 16 14 14 19 15 21 25 28 28 28 28 38 49 51 53 54 54 54 54 55 56 56 56 56 57 57 57 57 58 57 56 57 58 58 58 57 57 56 55 54 54 52 50 50 50
18 18 16 18 20 15 20 23 19 25 26 30 34 34 32 34 49 51 53 53 54 54 54 55 55 54 56 55 57 57 57 57 57 57 56 55 56 57 57 57 57 56 55 56 56 55 55 53 52
16 18 19 14 18 19 24 22 22 28 35 36 37 36 38 40 44 51 52 53 53 54 54 55 54 54 55 55 56 56 56 56 57 57 56 56 56 57 58 57 57 57 57 56 57 57 56 56 55
14 17 17 18 25 23 24 27 27 34 36 37 38 39 38 49 51 51 52 53 53 53 54 55 55 55 55 55 55 55 55 56 56 56 56 56 56 57 57 58 57 57 57 57 57 56 56 56 55
15 18 16 22 15 16 20 24 23 29 34 38 38 39 41 39 49 51 52 53 53 53 54 55 55 55 56 56 55 54 55 55 55 56 55 55 56 56 56 56 56 56 57 57 57 56 56 56 56
15 17 22 20 22 16 16 19 28 29 37 38 38 41 43 43 45 49 52 53 54 54 53 54 55 55 55 56 55 54 54 54 54 54 55 55 55 55 55 55 55 55 55 56 56 56 55 55 55
29 17 17 21 21 23 21 19 36 36 40 41 43 45 44 42 45 51 52 54 54 54 54 53 54 55 56 56 56 54 54 54 53 54 54 54 55 55 55 55 54 53 53 53 53 53 53 54 54

GFSSGP_sfc_dewp_108.txt.gz
Dewpoint
58 47 38 32 25 24 22 20 20 20 23 24 25 24 23 22 23 22 44 65 66 68 69 70 70 71 72 72 72 72 73 73 73 73 72 72 72 72 72 72 71 71 71 70 71 72 71 70 70
47 41 32 29 23 19 17 23 22 22 24 28 27 28 29 27 47 52 55 65 67 69 69 70 70 71 71 71 71 72 73 73 72 72 72 72 72 72 72 71 71 71 70 70 70 70 70 70 70
40 39 31 26 24 19 19 23 20 24 21 24 23 25 30 32 51 54 57 65 67 69 69 69 70 70 71 71 71 71 72 72 72 72 72 72 72 72 71 70 70 70 70 70 70 70 70 69 69
38 36 29 23 22 26 24 25 26 24 22 22 21 23 30 45 51 55 58 66 67 68 69 68 69 70 71 71 71 71 72 71 71 70 71 71 71 70 69 69 68 69 69 69 69 70 69 68 67
30 30 25 23 23 23 25 27 26 25 21 25 22 24 28 45 55 57 61 66 66 67 68 68 68 69 71 71 71 71 71 70 70 69 67 68 68 68 68 68 68 68 68 68 69 69 68 67 66
27 27 24 21 21 24 23 24 24 24 24 23 24 27 28 51 57 58 63 66 66 66 67 68 69 69 70 71 70 70 70 70 68 68 68 67 67 67 66 66 67 67 67 67 68 68 67 66 66
25 24 23 24 21 21 22 24 23 22 20 20 26 25 37 50 56 60 62 64 65 66 66 66 68 69 69 69 69 68 68 68 67 67 66 66 66 66 66 66 66 66 67 67 67 66 66 65 65
28 26 25 23 20 18 22 21 21 20 20 21 32 31 32 48 60 61 62 63 63 65 65 65 66 67 68 68 68 68 67 66 66 66 65 64 64 64 65 65 66 66 66 66 66 65 64 64 63
28 24 22 22 21 20 23 22 25 23 18 19 20 32 42 55 61 60 59 59 60 63 64 64 64 65 67 67 68 68 66 66 66 66 65 64 64 64 64 64 65 65 66 66 66 64 63 63 63
27 25 23 24 22 20 23 24 25 21 22 22 21 40 55 58 59 58 58 59 59 61 62 63 63 64 64 65 64 66 67 66 65 64 64 64 64 64 63 63 65 65 66 65 64 63 62 61 60
28 24 25 24 24 23 24 23 25 22 22 24 22 23 54 57 57 57 57 58 59 60 61 62 63 63 62 64 65 65 66 66 65 63 63 63 64 64 64 63 64 64 65 63 62 59 58 59 59
24 25 26 26 25 26 24 24 23 23 22 25 25 26 51 55 57 57 57 58 58 59 60 61 61 63 64 63 63 64 64 65 65 64 63 63 63 63 62 62 63 63 62 62 59 55 55 57 55
28 27 26 26 25 25 25 25 24 23 25 24 24 25 45 54 55 56 56 56 59 58 60 60 60 63 63 63 63 63 63 63 64 64 63 62 62 62 61 62 63 62 61 60 57 53 54 54 55
27 28 26 27 28 28 28 28 26 25 23 23 27 27 26 52 53 54 55 56 58 59 59 60 60 62 62 63 62 62 62 62 62 63 62 62 61 61 61 61 62 61 60 59 56 52 53 53 54
29 27 27 28 27 26 26 24 23 25 26 25 25 26 26 36 50 53 54 54 56 59 59 59 59 60 62 62 62 61 62 62 61 61 61 61 61 61 61 62 62 60 59 57 53 51 52 53 54
27 26 25 27 27 27 25 23 26 26 25 25 26 26 27 27 34 50 52 53 55 59 59 59 60 59 59 60 62 62 61 62 62 61 61 61 61 61 61 61 61 61 58 55 53 51 51 52 53
24 21 24 25 26 25 24 23 24 26 26 25 25 26 27 26 26 31 47 51 57 59 59 59 59 58 57 58 62 62 62 61 61 62 61 61 61 61 62 60 60 58 57 55 53 50 51 52 53
20 23 25 24 25 26 25 24 25 25 25 24 24 25 27 27 27 34 48 55 58 58 59 58 58 57 57 58 60 61 61 61 61 61 61 61 60 61 62 61 58 57 55 53 52 49 51 52 52
19 22 22 25 26 24 24 24 24 24 23 23 23 26 27 27 38 52 54 56 57 57 58 57 57 56 58 59 59 59 59 60 61 61 61 61 60 61 61 59 55 56 54 52 50 50 50 50 52
22 20 19 25 26 25 24 23 24 23 22 23 23 24 27 29 43 53 54 55 57 57 57 57 57 57 58 58 58 59 59 60 60 61 61 60 61 60 59 56 54 53 52 50 50 49 49 49 52
17 19 21 22 24 24 22 18 14 17 21 23 25 28 30 30 31 50 54 54 55 56 56 56 56 57 57 56 58 57 58 59 59 59 60 61 59 58 56 55 53 50 51 49 49 49 49 49 50
10 15 18 19 18 14 19 11 14 18 19 27 28 28 29 30 34 46 53 54 55 56 55 55 56 56 56 56 56 55 56 57 58 59 60 60 58 56 53 52 49 50 51 50 49 50 50 50 48
11 13 13 13 16 13 12 10 12 20 23 21 25 29 32 30 32 42 52 54 55 55 55 55 56 55 55 55 56 56 55 57 59 57 59 57 57 56 53 51 50 52 52 51 49 50 50 50 49
15 14 14 15 15 12 12 12 12 14 16 27 35 37 41 40 31 44 52 54 54 54 55 55 55 55 54 55 57 55 55 58 57 57 57 56 56 56 54 53 53 55 55 53 52 51 51 50 50
19 18 17 17 14 13 14 15 13 20 24 34 37 39 40 47 37 48 52 53 54 54 54 54 55 55 55 55 57 57 56 58 57 56 56 57 56 57 55 55 55 55 55 54 53 52 52 51 51
21 21 19 14 18 17 22 16 21 24 32 37 40 41 42 42 46 48 51 52 53 53 53 54 55 55 55 55 56 57 57 58 58 57 56 57 57 57 57 55 55 56 56 56 55 55 55 54 53
16 16 20 16 23 20 20 25 27 33 35 38 40 42 42 44 45 49 51 53 53 53 53 54 53 54 54 54 56 56 56 57 57 57 56 57 58 58 57 56 55 54 55 56 56 55 56 55 55
16 19 17 19 13 12 17 23 23 32 34 38 40 41 42 44 45 50 52 52 53 54 54 54 53 53 53 54 54 55 55 56 57 57 56 56 57 58 58 57 56 56 55 56 56 55 55 55 55
14 17 18 20 21 15 14 18 27 27 35 40 42 42 43 43 46 52 52 53 53 54 54 54 54 54 54 54 54 53 53 55 56 56 56 56 56 57 57 57 57 57 56 56 56 55 55 54 55
25 18 18 19 17 22 19 17 37 39 40 41 41 45 44 43 44 49 53 54 54 53 54 54 55 55 55 55 55 54 53 54 54 55 55 56 56 56 56 57 57 56 57 57 56 56 56 55 55

GFSSGP_sfc_dewp_111.txt.gz
Dewpoint
58 44 37 33 25 27 20 20 21 20 22 24 25 24 25 24 34 26 47 62 65 67 69 69 70 69 71 72 72 73 73 73 73 73 73 73 72 72 72 72 72 72 72 71 71 72 71 71 71
50 37 33 30 23 17 14 23 23 23 24 26 26 27 26 22 41 47 50 63 65 67 69 69 69 70 71 72 72 72 73 73 73 73 72 72 72 72 72 72 71 71 71 71 71 71 70 70 70
41 37 31 27 24 13 15 23 22 24 26 23 23 25 27 28 48 49 52 63 66 67 68 69 69 70 71 72 72 72 73 72 72 71 72 72 72 72 71 71 70 70 71 71 70 70 70 69 69
39 36 29 22 19 24 23 23 23 27 24 23 21 23 28 38 49 54 56 64 66 67 68 69 69 70 71 71 72 72 71 71 71 71 71 70 71 70 70 70 70 69 70 70 70 70 70 68 68
31 32 24 23 19 22 25 27 27 25 24 25 21 24 28 41 53 57 59 65 66 68 69 70 68 70 70 71 72 71 71 71 70 69 69 68 68 68 67 68 68 68 69 69 69 70 68 68 67
29 29 22 12 16 23 25 26 24 23 23 23 23 25 28 46 54 58 64 66 68 69 70 70 69 70 70 70 69 70 70 69 68 69 69 68 68 68 68 68 68 68 68 68 68 68 68 67 66
27 27 19 21 20 21 22 25 23 22 21 20 25 23 32 44 55 61 65 67 67 69 70 70 70 70 69 69 68 69 69 68 68 68 67 67 67 67 67 67 67 68 68 68 68 67 66 66 65
26 27 23 22 14 14 22 22 21 21 21 20 31 28 30 43 59 61 65 66 67 68 69 69 70 70 71 71 68 67 68 67 67 67 66 65 65 66 66 66 66 67 67 67 67 66 65 65 64
28 22 18 14 20 15 22 22 24 25 21 22 22 27 36 51 60 60 62 64 66 67 68 68 70 70 70 70 70 68 67 67 66 66 65 64 65 64 62 64 65 66 66 67 66 65 64 64 63
27 22 17 21 22 19 21 23 23 22 22 22 24 28 46 55 58 57 58 60 63 65 67 68 69 69 68 67 69 70 69 68 67 67 65 66 65 64 63 64 65 66 66 66 65 64 63 63 61
28 22 23 23 23 23 22 23 24 22 21 25 24 27 30 49 55 57 57 58 59 63 65 67 68 69 68 66 67 68 68 67 67 66 66 65 65 64 65 64 66 66 66 64 64 62 61 61 60
27 27 25 23 25 25 24 25 24 24 23 25 27 29 28 34 46 54 56 57 58 61 63 66 67 67 67 67 66 66 66 66 66 65 65 65 64 64 63 63 63 64 66 65 62 59 61 61 59
28 27 26 27 26 26 26 25 25 24 26 28 28 28 27 30 42 53 55 57 59 60 62 65 66 66 66 65 65 65 65 66 66 64 64 64 64 64 64 62 64 64 64 64 61 58 59 59 58
24 26 25 25 25 27 25 25 26 25 28 27 29 28 28 30 35 45 54 56 58 59 61 63 65 65 64 64 64 64 65 65 66 64 63 63 64 63 62 62 63 63 64 63 59 57 57 57 57
28 25 27 27 26 26 28 26 26 28 29 28 28 29 28 28 30 41 46 51 55 59 61 62 64 65 64 64 63 63 64 64 64 64 63 63 63 63 62 63 63 62 63 61 59 57 57 56 56
22 24 22 26 28 28 26 22 26 28 27 27 29 29 29 30 30 31 39 43 50 56 60 62 62 64 63 63 63 63 63 63 63 63 63 63 63 63 62 61 62 63 61 60 57 56 56 56 56
19 13 21 24 27 27 26 23 25 26 26 27 28 28 28 29 30 31 33 35 45 56 60 61 63 63 62 63 63 63 63 63 62 62 62 62 62 62 62 62 62 62 61 59 55 55 56 55 55
13 16 22 20 24 27 25 25 25 26 27 27 28 27 28 28 28 32 42 46 48 58 60 61 63 63 62 63 63 63 63 62 63 63 62 61 61 62 62 62 61 60 59 58 55 55 55 55 55
14 19 19 23 26 25 25 25 25 27 27 27 27 27 27 27 29 37 53 56 57 59 60 61 61 62 61 61 60 60 59 61 61 62 62 62 61 62 62 62 60 59 58 56 57 55 55 54 55
15 13 13 16 22 23 21 21 22 24 25 26 26 25 24 27 28 34 50 56 58 58 59 60 60 60 60 59 60 60 61 61 62 62 62 62 61 61 61 61 59 58 56 55 55 55 54 54 55
13 14 13 12 19 24 23 17 12 13 20 21 23 24 25 29 32 34 40 54 57 58 58 58 59 59 60 60 59 59 61 61 61 61 62 61 61 61 61 60 59 58 55 53 54 55 54 52 54
10 14 14 14 18 10 17 3 11 12 14 23 25 32 38 41 41 36 36 50 56 57 57 58 59 59 58 58 58 57 57 57 59 60 61 61 60 60 59 58 58 58 55 53 53 55 55 55 53
16 16 16 16 16 15 11 10 9 17 18 20 37 39 42 46 45 40 37 46 54 57 56 57 59 58 57 58 58 57 58 59 60 60 60 60 60 59 57 57 56 56 55 54 52 54 55 55 53
16 14 14 15 14 8 9 8 8 12 16 34 38 40 43 44 48 50 47 51 54 57 55 58 58 56 56 58 58 58 57 57 58 59 59 58 58 56 56 55 54 54 55 54 54 54 55 55 54
15 14 11 12 12 11 14 10 10 19 29 37 39 41 44 45 47 50 51 53 54 54 54 56 56 55 56 58 58 57 56 56 58 58 58 56 56 54 54 54 54 55 54 53 53 54 55 55 54
16 16 12 5 10 10 16 12 13 21 27 40 41 42 43 45 49 51 51 53 54 53 54 55 54 55 56 57 57 57 57 57 58 58 58 56 56 54 55 54 55 55 54 53 54 54 55 56 55
22 17 19 17 23 19 19 21 26 32 38 40 41 42 43 46 51 51 52 53 53 53 54 54 55 55 55 56 56 57 58 58 58 57 58 58 57 56 56 56 56 56 55 54 54 54 55 54 55
21 23 19 19 12 12 15 21 18 33 37 39 41 42 43 47 50 52 53 53 53 53 54 55 55 54 55 55 56 56 57 58 58 58 57 58 58 56 55 55 55 56 56 55 55 55 55 55 56
9 18 20 20 19 10 10 14 28 30 37 40 42 41 43 46 49 50 53 54 54 54 54 54 54 54 54 54 55 55 56 57 57 57 57 57 58 57 56 54 54 54 54 55 56 55 56 55 56
15 12 19 17 17 19 16 16 37 39 41 41 43 41 42 42 46 48 50 54 54 54 54 54 54 55 55 55 54 55 55 56 57 56 57 57 57 58 58 56 55 54 53 53 54 55 55 54 54

GFSSGP_sfc_dewp_114.txt.gz
Dewpoint
54 42 33 32 21 16 9 12 21 20 21 24 25 31 26 25 25 23 46 58 57 59 65 69 71 70 71 72 72 73 73 73 73 73 73 73 73 73 72 72 72 72 72 71 71 71 71 71 71
47 35 31 27 14 6 4 14 19 20 24 26 26 27 24 22 29 37 50 58 57 59 64 67 70 70 71 72 72 73 73 73 73 73 73 72 72 72 71 72 71 71 72 72 71 71 71 71 71
39 33 24 15 10 4 2 16 20 22 25 23 24 25 24 23 32 36 42 57 57 59 62 67 70 70 71 72 72 72 73 73 72 72 72 71 71 70 70 69 71 71 72 72 70 70 71 70 70
31 28 23 14 9 10 10 17 23 23 23 23 23 23 24 33 37 44 47 55 58 60 62 68 69 70 71 72 72 72 72 72 72 71 71 71 71 69 69 69 71 71 71 70 70 71 70 69 69
31 25 13 11 7 7 16 23 27 22 23 25 22 23 25 36 45 51 51 57 59 62 64 70 69 69 71 71 72 72 71 71 71 70 70 69 68 66 67 67 67 69 69 70 70 70 69 68 68
19 22 12 4 4 11 15 17 20 20 21 22 22 23 25 40 45 52 55 60 64 66 68 70 69 69 69 70 71 71 70 70 70 69 69 69 66 66 67 68 68 69 69 69 70 69 68 67 67
21 17 9 7 7 11 13 17 20 20 21 20 23 23 27 38 51 59 59 63 66 68 69 70 71 70 69 68 68 69 69 69 69 68 68 68 67 67 68 67 68 69 69 69 69 68 67 67 66
23 20 15 11 9 6 11 17 18 20 20 22 24 23 28 40 53 58 62 63 65 67 68 69 69 71 71 70 67 68 68 68 68 68 67 66 65 67 67 67 68 68 68 68 68 67 66 65 65
26 18 13 11 9 10 16 15 21 23 21 22 23 26 29 39 49 53 60 63 64 65 67 68 69 69 70 70 69 68 68 67 67 67 66 65 66 67 66 64 67 67 67 68 67 66 65 64 63
23 18 15 12 12 11 14 15 16 20 21 21 22 28 28 35 42 45 52 58 63 64 66 66 68 69 69 68 70 70 70 69 68 67 67 65 67 64 61 62 66 67 67 67 66 65 64 63 63
24 21 20 16 16 15 14 15 15 17 15 21 23 23 26 29 36 43 44 50 56 61 65 66 68 69 69 68 68 69 71 70 69 68 67 66 65 63 60 61 63 68 66 65 65 65 63 64 63
24 23 23 20 20 21 19 18 18 17 17 19 22 25 27 30 31 35 40 43 50 57 63 66 67 68 69 68 67 69 70 70 69 68 68 67 66 65 62 60 61 64 66 66 65 65 64 63 61
26 24 22 24 23 22 22 21 21 20 19 21 23 26 27 28 29 36 38 42 48 55 60 65 66 67 68 68 68 67 69 68 68 68 67 67 66 65 61 60 60 63 67 65 65 65 63 61 60
22 23 24 24 23 22 22 23 22 22 24 25 26 26 24 27 28 31 35 44 49 53 59 63 65 67 67 67 67 67 67 68 67 67 67 67 67 65 64 64 61 65 65 65 63 62 61 59 59
22 21 22 22 23 22 23 24 24 26 26 25 25 27 28 28 28 30 33 37 44 50 57 61 65 66 67 66 66 65 66 67 67 66 67 66 65 65 65 64 65 61 65 65 62 61 61 57 57
21 21 20 22 23 24 22 22 24 26 27 27 29 30 30 29 29 29 32 34 36 40 50 59 61 65 66 65 65 64 65 66 66 66 65 65 65 64 64 64 65 65 63 62 61 59 58 56 56
15 11 11 15 24 24 26 22 23 26 26 26 27 28 28 28 29 30 31 33 35 40 47 58 62 65 66 65 64 64 65 65 65 65 65 65 65 64 63 62 65 64 62 62 60 59 58 56 55
8 9 11 12 12 18 21 22 23 25 26 27 28 28 29 29 29 30 31 34 42 47 51 58 61 64 65 65 65 64 64 64 64 64 64 64 64 63 63 63 62 63 62 61 60 60 58 56 56
7 7 7 8 12 21 20 19 20 22 24 26 27 28 28 29 30 30 31 39 51 53 54 58 61 63 63 63 63 63 63 63 63 63 63 62 63 62 63 62 62 62 61 61 60 60 58 57 57
8 8 7 6 6 15 15 12 13 15 19 24 25 25 25 25 25 26 30 43 54 54 56 58 59 62 62 62 62 62 61 62 61 62 63 63 62 62 62 62 62 61 60 60 59 59 58 57 57
8 7 6 6 8 10 12 11 12 13 14 16 18 19 19 22 23 30 33 39 50 55 58 57 59 61 63 63 61 61 61 61 62 62 63 62 62 62 61 62 61 60 60 58 57 59 58 56 57
7 6 8 9 9 7 11 5 6 12 12 13 17 21 26 31 37 38 37 37 45 55 58 58 59 60 61 62 61 60 58 56 59 60 61 62 62 62 62 61 60 60 59 58 56 57 56 57 55
9 9 12 14 13 12 9 8 6 7 7 15 19 29 38 41 44 45 43 40 41 55 58 59 60 60 61 62 60 58 56 57 59 60 61 62 62 62 62 61 60 59 58 58 56 56 56 56 55
12 15 14 13 12 10 9 9 3 4 14 16 34 38 42 43 45 46 48 45 46 57 58 59 59 59 60 60 60 58 58 58 59 59 60 61 61 61 60 59 60 59 58 57 57 57 56 58 57
10 13 5 6 8 4 4 7 8 9 22 27 36 41 42 44 48 48 48 49 50 55 56 58 58 58 58 59 58 58 59 58 57 57 58 59 59 57 57 58 58 58 57 56 57 57 57 58 57
9 11 5 -1 2 4 10 10 9 13 20 37 40 41 43 46 50 50 51 53 53 54 55 57 57 56 57 59 58 59 58 57 57 58 57 59 58 57 56 56 56 57 56 56 56 56 57 57 58
8 9 9 4 5 9 6 13 11 20 17 37 40 41 44 47 51 51 52 54 54 54 54 56 56 56 57 58 58 58 57 57 56 58 59 58 58 56 54 55 55 56 55 56 56 56 57 58 58
6 8 6 4 2 -0 -2 7 11 22 29 37 40 41 44 48 50 52 53 53 54 53 54 56 56 56 56 57 57 56 56 57 58 60 59 58 57 56 54 55 56 55 55 55 56 56 57 58 58
11 15 10 5 8 1 3 7 18 28 34 38 40 41 44 47 49 51 52 54 54 54 54 55 55 56 56 55 56 56 56 56 58 59 59 58 58 56 55 56 56 55 55 55 55 55 55 55 56
8 14 15 11 8 9 9 7 32 32 36 40 40 41 43 45 47 48 50 50 50 54 54 54 55 56 56 56 55 55 56 57 58 58 58 58 57 56 55 56 55 55 54 54 54 54 54 54 55

GFSSGP_sfc_dewp_117.txt.gz
Dewpoint
54 44 34 25 20 14 6 6 8 16 18 21 21 28 24 24 26 28 39 50 50 53 64 68 71 72 71 72 72 73 73 74 73 73 73 73 72 72 73 73 73 72 72 71 71 71 71 71 71
43 35 27 23 17 6 7 3 11 16 23 25 24 32 23 21 23 36 44 52 50 54 64 67 70 71 72 72 72 73 73 73 73 73 73 72 72 72 71 71 71 71 72 72 71 71 71 71 71
49 29 21 16 13 6 2 5 10 17 24 24 24 26 23 23 25 34 43 49 49 53 59 68 70 70 72 72 72 73 73 73 73 73 72 71 71 70 69 69 69 70 72 72 71 71 71 71 70
35 23 23 17 12 7 5 5 12 18 23 22 23 23 23 29 30 33 42 45 49 53 57 69 69 70 71 72 72 72 72 72 72 72 72 70 69 69 68 67 68 69 70 71 71 71 71 70 69
27 21 16 10 7 3 6 10 18 21 21 24 21 24 25 30 35 39 42 47 53 55 62 70 69 70 71 72 72 72 71 72 72 72 71 69 68 68 68 68 68 68 68 71 71 71 70 69 68
20 17 13 8 7 7 5 10 18 22 19 22 22 23 25 31 37 45 46 53 58 61 66 69 69 70 71 71 71 71 71 71 71 71 70 68 66 65 66 68 68 67 68 70 70 69 69 68 68
21 16 12 10 10 7 5 13 12 18 18 19 22 22 26 35 46 54 51 55 61 65 67 70 70 69 70 69 69 69 69 70 70 70 69 67 66 66 65 66 68 68 68 70 69 68 68 67 67
22 20 16 13 12 9 9 9 12 13 15 21 22 23 25 43 46 51 54 58 61 65 67 68 69 70 70 70 68 68 69 68 68 68 68 66 66 66 66 68 67 68 69 69 68 67 67 66 66
25 22 18 15 14 12 10 10 14 12 13 20 22 26 31 37 43 48 55 59 62 64 66 66 68 69 70 70 69 68 68 68 68 68 66 65 65 63 65 65 68 68 68 68 67 66 66 65 64
25 23 21 18 15 12 12 11 13 14 17 17 22 27 27 30 37 40 48 55 59 62 65 65 67 68 69 67 70 69 68 68 67 68 68 68 66 65 64 65 67 68 67 67 66 66 64 64 64
26 24 23 20 19 16 14 13 12 11 14 17 20 24 27 27 30 37 37 45 54 59 63 64 67 68 69 69 69 68 67 66 67 67 68 68 65 69 64 67 64 68 67 65 66 64 65 63 63
24 25 25 24 22 21 19 19 18 14 14 14 17 22 25 27 29 30 35 36 42 52 61 64 65 67 70 68 67 66 67 66 66 67 69 68 66 67 66 60 59 64 68 66 64 64 65 64 63
22 23 24 25 24 23 23 21 22 21 19 19 16 18 21 25 27 32 31 34 39 44 55 63 65 67 69 68 65 66 68 67 67 67 69 68 67 65 63 62 64 65 68 67 65 64 65 64 62
23 23 23 25 25 24 24 24 23 23 23 23 23 21 21 23 25 28 32 33 38 43 53 61 65 66 68 68 68 67 67 67 69 68 68 68 67 68 64 66 64 65 67 66 65 64 62 64 60
19 20 21 22 22 23 24 22 23 25 26 25 23 25 24 21 22 25 28 31 32 42 49 58 64 66 67 68 67 67 65 66 68 67 68 68 68 67 66 65 64 64 67 64 64 63 63 64 59
12 20 20 21 22 22 22 21 24 25 25 25 26 27 26 26 24 24 27 29 31 35 46 53 57 65 68 67 67 65 65 65 67 67 67 67 67 67 67 65 66 65 66 64 63 63 62 61 59
6 3 9 14 16 20 23 22 22 23 25 25 27 28 28 29 29 29 28 29 30 36 39 47 60 63 68 67 65 65 66 65 66 66 66 66 66 66 65 66 66 65 65 64 62 62 60 59 58
0 4 5 9 11 12 18 20 22 23 23 26 26 26 27 28 28 30 31 33 32 39 41 47 56 63 67 66 66 64 64 65 65 64 64 66 66 65 65 65 65 66 65 63 61 60 60 58 56
-0 1 1 8 8 10 12 13 14 20 21 24 25 26 28 30 30 31 34 34 34 42 47 50 54 62 64 64 64 64 62 63 63 63 64 65 66 64 65 65 64 63 62 62 61 61 59 58 57
-5 -2 3 1 1 5 6 11 18 17 16 19 22 24 26 28 29 30 32 35 40 41 51 52 55 59 63 64 64 63 63 63 63 62 63 64 64 64 64 64 63 63 62 62 60 60 58 58 58
1 -1 -0 -1 -0 3 7 5 7 9 12 12 13 17 21 24 26 25 28 32 37 46 52 53 55 58 62 63 63 62 62 63 61 61 62 63 63 63 63 63 63 62 62 61 60 60 57 56 57
3 1 1 -3 0 -1 6 2 3 6 8 11 13 17 18 19 20 22 26 32 38 45 52 54 55 57 63 64 62 62 60 59 60 60 61 62 63 62 62 62 62 62 61 61 60 60 59 58 55
-1 3 7 5 4 6 1 -4 1 5 7 11 14 16 20 27 33 35 35 36 36 43 53 57 56 57 63 63 62 61 60 59 58 58 60 61 62 63 62 62 61 61 61 61 59 60 59 58 57
10 5 6 11 9 7 7 1 -2 1 8 12 19 22 30 37 39 40 41 46 42 54 57 59 57 57 61 62 62 61 61 58 57 57 58 61 62 62 62 62 61 60 60 60 59 59 59 58 57
10 10 4 9 9 8 4 2 4 6 6 12 26 35 39 41 43 43 44 46 44 52 57 58 58 57 61 62 62 61 60 59 58 58 57 59 61 62 62 62 61 60 59 59 59 59 59 58 57
9 9 7 5 5 4 -1 -1 0 5 7 19 31 37 40 42 46 46 49 50 51 54 56 56 57 59 59 61 61 60 59 58 57 57 56 57 60 60 60 61 60 60 59 59 58 59 59 59 59
8 7 7 10 7 6 -1 0 6 8 11 30 35 37 41 44 47 49 51 53 54 54 53 55 57 58 58 60 61 59 59 57 57 57 58 58 59 60 60 58 58 59 58 58 58 58 58 58 59
10 6 7 9 6 3 -2 3 3 10 15 28 32 37 43 47 49 51 52 53 53 53 54 56 57 57 57 59 59 57 58 57 57 59 59 59 60 59 57 56 56 56 57 57 57 57 58 58 58
7 6 4 7 8 4 2 1 9 10 16 23 32 39 43 46 48 49 51 52 53 55 54 55 56 56 57 58 58 57 56 57 57 59 59 59 59 58 56 55 55 55 55 56 56 56 57 57 58
26 7 6 5 6 5 4 2 21 17 25 28 38 40 44 45 46 47 49 50 50 51 54 54 55 57 57 57 57 57 55 56 57 58 59 59 58 57 55 55 55 55 55 55 55 56 57 57 57

GFSSGP_sfc_dewp_120.txt.gz
Dewpoint
55 48 40 34 20 20 13 7 7 7 14 19 21 18 24 24 29 34 47 54 59 63 68 69 72 72 72 72 72 72 73 74 73 73 73 73 73 72 72 73 73 72 73 72 72 72 72 72 71
43 38 35 23 17 12 9 10 3 7 21 23 22 27 23 22 29 39 47 53 58 63 66 68 71 72 72 72 72 73 73 74 73 73 73 73 72 70 70 70 70 70 72 72 72 72 71 71 71
49 43 25 19 14 12 13 7 6 19 24 24 23 24 26 21 25 37 48 50 55 62 64 69 70 71 72 72 72 73 73 73 73 73 73 72 69 68 68 68 68 68 68 72 71 72 71 71 70
39 37 23 16 14 12 9 9 7 17 22 22 22 23 24 31 31 43 45 46 52 58 67 69 69 70 71 72 73 73 73 71 72 72 72 70 67 67 67 65 68 67 66 68 71 71 71 69 69
38 23 16 13 10 9 9 5 8 14 18 23 20 23 26 32 33 42 45 47 55 64 69 69 69 70 71 72 72 72 72 71 71 72 71 70 68 67 66 66 67 62 63 68 69 70 70 69 68
29 22 16 12 13 12 11 9 8 16 20 19 21 22 27 31 37 44 49 58 65 70 70 69 69 70 71 71 71 71 71 70 71 71 69 69 68 67 66 67 66 64 63 67 68 69 69 68 68
25 21 16 13 12 11 10 12 10 10 17 16 19 20 29 32 47 51 52 59 65 70 70 70 69 70 70 70 69 70 70 70 71 70 68 67 68 67 68 68 67 65 67 68 69 68 68 68 67
27 23 19 17 13 12 12 10 10 10 9 16 18 22 28 47 54 54 54 61 63 67 70 69 69 70 70 70 68 69 69 69 69 69 67 66 65 66 67 68 68 68 68 69 68 68 67 67 66
28 24 20 19 17 16 15 14 11 12 11 9 20 26 36 42 45 49 55 62 64 67 68 69 69 70 71 70 69 69 69 68 68 68 67 65 65 65 65 65 66 67 67 68 67 67 66 65 65
27 25 23 23 23 20 16 13 12 11 11 11 20 27 28 34 42 46 53 58 62 65 67 68 69 70 71 68 70 69 69 69 69 69 67 67 67 64 63 65 67 67 67 67 66 66 65 65 65
26 25 25 24 25 24 22 18 14 12 11 17 17 24 25 31 36 42 47 55 59 63 66 67 68 70 70 68 69 68 68 68 68 69 69 68 67 67 67 67 67 66 67 66 65 65 65 65 65
23 25 25 25 25 25 24 23 19 16 16 16 18 22 24 29 32 34 41 41 54 59 64 66 68 70 70 68 68 68 67 68 68 68 69 68 67 67 66 67 66 65 66 65 65 65 64 63 63
21 20 20 22 24 25 26 24 24 22 22 22 20 19 18 28 31 40 37 39 45 55 63 65 67 69 69 69 68 68 67 68 68 68 68 68 67 66 66 64 64 63 66 65 65 64 63 63 63
14 15 18 21 23 24 24 26 24 24 25 24 26 24 20 21 25 31 36 38 44 47 62 65 66 68 70 68 68 67 69 67 69 68 68 68 67 67 65 64 65 66 66 66 65 63 63 63 62
14 15 16 15 20 22 23 22 24 25 27 27 25 26 25 23 22 24 32 34 36 45 55 65 66 68 69 68 68 67 68 68 68 68 69 68 67 67 65 65 64 65 66 65 64 63 63 63 62
10 7 7 7 14 19 21 20 23 25 25 24 27 27 26 25 24 22 27 29 33 37 50 61 64 67 68 69 67 67 67 67 67 67 68 68 67 67 66 65 64 65 65 64 63 62 62 62 61
4 3 -1 -0 4 3 15 20 22 23 24 25 27 27 27 28 28 27 25 27 29 40 46 56 61 65 67 69 68 67 67 67 67 67 67 67 67 66 66 65 64 64 65 63 62 62 61 61 61
-1 0 4 4 4 9 9 13 17 22 22 25 25 27 29 29 30 31 32 32 32 43 47 56 60 64 67 68 68 67 66 66 66 67 66 67 67 66 65 65 64 64 64 62 61 61 61 60 60
4 3 -0 1 3 5 11 11 12 14 19 22 24 27 28 30 31 32 37 41 42 46 52 53 59 63 66 66 66 65 64 65 65 65 65 65 65 65 65 64 64 64 63 62 61 61 59 59 58
-1 -0 2 1 -2 2 3 3 10 10 13 20 22 23 27 28 30 34 39 44 48 47 51 54 53 62 63 65 65 64 64 64 63 64 64 64 64 65 64 64 63 63 63 62 61 60 59 58 58
5 4 3 2 -0 -1 3 6 6 7 10 13 17 15 16 25 29 32 35 42 48 49 55 54 54 57 62 65 65 64 63 63 63 63 63 63 63 64 63 63 63 63 63 61 61 60 59 56 57
7 6 3 -0 1 -4 -0 1 4 4 7 10 11 14 17 17 21 30 32 35 43 50 56 56 56 56 61 65 63 63 61 61 61 62 62 63 63 63 63 63 63 62 62 61 61 61 59 58 56
12 12 7 3 2 5 -0 -4 -0 4 4 5 9 15 18 19 22 24 26 29 42 47 56 57 57 57 63 63 63 62 61 61 61 61 61 61 62 62 62 62 62 62 62 61 61 61 59 58 56
21 16 10 11 8 3 5 2 -1 0 3 2 10 17 20 27 36 39 43 46 46 58 59 60 58 57 64 63 63 62 62 61 60 60 61 61 61 62 62 61 61 61 61 61 61 61 60 59 58
20 21 9 9 9 5 5 4 7 8 4 5 16 32 37 41 43 44 43 46 49 56 60 60 59 58 63 63 63 63 62 62 60 59 59 60 61 62 62 61 61 61 61 61 61 60 60 60 58
29 22 12 7 7 4 5 3 5 9 6 7 30 37 39 41 46 47 50 51 52 57 59 58 58 58 62 62 62 63 61 61 60 60 59 60 61 61 62 62 61 61 60 60 60 60 60 60 59
27 16 14 12 12 10 5 4 7 6 5 6 34 37 39 44 46 50 52 54 54 55 56 57 57 58 60 61 61 61 61 60 59 59 59 59 60 61 61 61 61 61 60 59 59 59 59 59 59
27 23 16 11 7 5 5 7 3 4 5 13 34 37 44 48 49 51 52 53 53 53 55 56 57 59 59 59 60 61 59 59 59 59 59 60 61 59 59 59 59 59 59 59 59 58 58 59 59
31 30 20 14 8 6 9 11 11 17 11 27 33 40 45 47 49 49 50 51 52 54 54 55 56 57 58 58 59 60 59 59 58 58 60 59 60 59 57 55 56 56 57 58 58 58 58 58 58
23 27 27 10 7 9 10 9 12 25 25 29 30 39 45 48 48 48 49 50 49 50 50 50 56 57 58 58 58 59 59 58 58 58 60 60 59 58 57 56 55 55 56 56 56 56 57 58 58

GFSSGP_sfc_dewp_126.txt.gz
Dewpoint
55 53 45 35 23 20 18 17 17 14 16 17 24 26 26 32 38 39 57 58 66 68 70 71 71 71 72 72 73 73 73 73 73 73 73 73 73 73 72 72 71 71 71 71 71 71 71 71 71
48 46 38 31 20 14 13 18 17 17 19 28 26 32 30 39 50 55 55 64 66 69 70 70 70 71 71 72 72 73 73 73 73 73 73 72 72 72 71 70 70 69 70 71 70 71 71 71 70
49 45 39 27 18 15 14 16 15 14 14 24 23 28 33 40 52 50 56 64 66 68 69 70 70 70 71 71 72 72 73 73 72 72 72 71 71 71 70 69 69 68 70 69 70 71 71 70 70
39 41 39 21 17 16 16 14 15 15 14 20 25 30 31 44 51 54 60 63 64 66 69 69 69 70 71 71 72 72 72 72 72 72 71 71 71 71 70 69 68 68 69 69 69 71 70 69 69
39 35 30 21 17 15 15 15 16 14 14 25 22 27 33 42 50 57 60 60 64 66 68 69 68 70 71 72 72 72 71 71 71 71 70 70 71 70 68 67 68 68 67 68 68 70 69 68 68
38 31 23 20 19 17 17 18 17 18 17 21 23 27 31 44 55 58 59 60 66 66 67 68 69 70 71 71 71 70 69 70 70 70 70 70 69 69 68 67 67 68 66 68 68 68 68 68 68
39 35 29 21 23 23 21 22 21 17 19 18 23 20 34 43 53 57 59 65 66 66 67 68 69 70 70 69 69 68 68 68 70 69 68 68 68 67 68 67 66 67 67 68 67 68 67 67 66
35 32 32 26 25 23 23 23 21 21 24 17 21 22 36 42 48 59 66 67 66 66 66 67 68 68 69 69 68 68 67 68 68 68 67 67 66 66 67 66 66 67 67 67 67 68 67 67 66
28 25 25 25 24 25 26 25 26 27 24 25 14 27 37 50 59 64 66 66 66 66 66 66 67 67 67 68 69 68 68 68 68 68 67 65 65 65 66 65 65 66 66 66 68 67 66 66 65
23 25 25 27 26 26 27 27 27 25 25 25 23 45 49 51 58 61 62 64 65 65 65 66 66 67 67 68 68 67 68 69 68 67 66 64 63 64 65 66 65 65 65 66 68 67 66 65 65
23 23 25 26 27 27 27 27 28 25 24 28 24 24 37 47 53 58 60 63 64 65 65 66 66 67 67 67 68 68 68 68 68 66 64 62 63 64 65 65 66 64 66 66 66 66 64 64 64
14 17 21 23 25 26 25 24 23 23 24 28 28 25 25 30 43 54 58 60 62 66 66 66 66 67 67 67 67 67 67 67 67 67 64 63 63 62 62 64 63 64 65 65 65 64 63 64 64
6 13 12 13 13 15 16 16 21 20 23 27 28 28 25 24 24 36 49 59 61 63 66 66 67 67 68 67 66 66 67 67 67 66 65 64 64 63 63 64 64 64 64 64 63 63 63 63 64
11 13 10 10 10 12 14 15 17 16 21 25 27 27 27 28 26 25 35 51 61 62 64 66 67 67 68 67 67 66 67 67 67 67 66 66 65 64 63 64 64 64 64 63 63 62 62 62 63
18 13 12 3 7 12 13 11 15 17 17 21 24 24 24 27 27 25 30 38 56 62 64 65 66 67 68 66 67 66 66 66 66 67 67 67 66 64 64 64 63 64 64 62 61 60 61 61 62
18 13 5 -1 5 6 9 3 7 10 17 19 21 22 22 23 27 27 26 27 34 57 62 64 66 67 68 66 67 67 66 66 66 66 67 66 66 65 64 63 63 63 64 63 62 61 60 61 62
11 7 5 6 5 4 5 3 4 5 8 16 20 17 20 23 24 26 26 25 26 40 58 63 65 66 67 67 66 66 67 65 66 67 67 66 65 65 64 63 63 63 63 63 62 59 60 60 61
10 9 8 7 7 7 5 3 3 3 2 4 11 14 17 21 24 26 26 27 26 30 56 62 64 65 67 67 66 66 66 66 66 66 66 66 65 64 64 63 63 64 62 62 61 60 58 59 60
13 12 12 13 13 10 8 9 7 5 2 0 2 11 13 19 24 26 26 27 27 26 47 61 62 65 67 66 65 65 64 65 65 66 66 66 65 64 63 62 62 63 62 61 60 59 59 57 60
10 9 8 9 12 14 12 11 11 9 5 3 0 6 12 13 10 17 30 30 29 28 34 57 62 64 66 66 66 65 65 64 65 65 65 65 65 65 64 64 62 62 62 60 60 59 57 57 60
10 9 10 14 17 17 15 12 10 9 8 4 1 1 7 8 8 10 17 29 34 29 32 49 61 64 66 66 66 64 63 62 63 65 65 65 66 65 65 64 63 63 63 61 60 59 58 56 59
9 17 17 16 16 14 16 13 15 13 12 9 2 2 6 7 8 12 13 26 35 37 43 46 60 63 66 66 65 64 63 63 63 64 65 64 65 65 64 64 63 63 63 62 61 60 59 58 57
14 16 17 19 20 18 15 12 12 12 9 7 2 2 6 7 9 10 12 22 30 37 48 55 61 63 65 66 65 64 63 63 63 63 62 63 63 64 64 64 63 62 63 62 61 60 60 59 57
14 18 19 19 22 18 16 14 12 10 10 9 4 3 6 6 7 8 10 13 38 46 51 52 61 62 64 65 64 63 63 62 61 62 62 62 62 63 63 63 63 62 62 62 62 61 60 59 59
18 19 18 14 14 11 12 11 11 11 11 10 8 7 8 9 28 29 43 54 55 55 56 58 60 61 63 64 64 63 62 62 61 61 61 61 61 61 62 62 62 62 62 62 62 61 60 60 59
17 25 23 16 15 16 21 13 8 10 10 10 8 8 38 51 52 52 53 55 55 55 55 56 57 60 61 61 62 62 62 61 61 61 60 60 61 61 61 61 62 62 62 61 61 61 61 60 59
27 24 27 27 28 22 18 13 12 12 13 13 13 12 51 51 51 52 52 53 53 54 54 55 56 58 59 60 60 60 61 61 61 60 61 60 61 61 61 61 60 60 61 61 61 61 60 60 60
26 23 24 24 19 16 10 10 11 12 13 16 26 32 45 50 51 51 51 51 52 52 53 54 55 56 57 59 61 61 61 61 61 61 61 61 61 61 61 60 60 59 59 60 60 60 60 60 60
19 24 24 28 25 21 17 11 30 31 39 44 46 41 43 49 49 49 49 50 50 50 50 51 52 53 56 58 59 60 60 59 60 59 60 61 61 61 61 61 60 60 59 59 59 59 59 59 59
19 19 23 24 20 24 25 17 28 30 42 42 43 47 48 47 47 47 47 47 47 47 48 48 49 50 53 57 58 58 60 59 59 59 59 60 59 59 59 59 58 58 58 59 59 58 59 59 58

GFSSGP_sfc_dewp_129.txt.gz
Dewpoint
54 52 44 34 22 20 16 12 18 13 15 17 21 27 27 37 40 36 55 60 66 68 70 71 71 72 72 72 72 72 73 72 72 73 73 73 73 73 72 72 72 72 72 71 71 72 71 71 71
49 45 37 28 18 11 5 18 17 16 20 21 25 29 31 40 50 55 53 64 66 69 70 70 71 71 72 72 72 73 73 72 73 72 73 73 73 72 72 71 71 72 72 72 71 71 71 71 70
49 44 39 27 19 12 8 14 15 15 17 16 20 25 38 44 52 52 56 65 68 68 69 69 70 70 71 72 72 72 73 72 72 72 72 72 72 72 70 70 70 71 72 72 71 71 71 70 70
39 40 37 27 21 18 15 15 16 15 16 17 19 24 33 48 50 51 62 65 67 68 69 69 69 70 70 71 72 72 72 72 71 72 72 72 71 71 70 69 69 71 71 71 72 71 70 69 69
38 36 33 25 23 18 17 17 17 18 18 22 22 23 33 49 52 58 61 63 65 67 68 69 69 70 70 71 72 72 72 71 71 71 71 71 71 70 69 68 69 70 70 71 71 70 69 68 68
35 32 27 24 24 21 21 21 21 23 21 25 23 24 36 45 55 55 60 62 63 66 68 68 69 70 70 71 71 71 71 71 71 70 70 71 70 70 69 68 68 68 69 69 69 69 68 68 68
37 34 29 27 26 27 27 25 24 23 23 25 22 21 33 51 53 56 58 62 63 66 67 68 68 69 69 69 69 69 69 69 70 69 69 69 69 68 68 67 67 68 68 68 69 68 68 68 67
40 35 31 31 28 28 26 26 24 24 25 27 23 22 32 42 55 62 65 65 63 65 66 67 68 68 68 69 68 67 67 68 69 68 67 67 67 67 67 66 66 67 68 67 68 67 67 67 65
29 26 26 26 26 26 27 27 29 28 27 27 26 29 39 50 62 64 64 63 63 64 65 67 67 68 68 68 68 67 67 68 68 68 67 65 65 65 66 65 66 67 67 67 68 67 66 65 65
23 24 26 27 27 27 28 27 27 27 26 27 28 31 30 53 56 60 62 62 63 63 64 65 67 67 67 69 68 66 67 68 67 67 66 65 63 63 65 64 65 66 66 67 67 66 65 65 64
26 22 24 24 25 27 27 27 27 27 24 27 26 27 27 42 48 55 60 62 62 63 64 65 66 66 67 67 67 67 68 68 68 65 64 63 62 63 63 63 63 63 65 65 66 66 64 64 64
11 12 15 19 15 13 15 23 18 16 19 25 28 28 27 29 39 48 52 59 62 63 63 64 65 66 66 67 66 66 67 67 68 66 63 62 62 62 62 63 63 62 63 64 65 64 63 63 63
6 11 15 14 10 11 12 11 13 13 15 19 26 29 27 27 27 31 45 51 57 62 64 64 65 65 66 66 65 65 65 67 67 66 64 63 62 62 62 62 62 63 64 64 63 63 62 62 63
18 18 18 11 10 6 8 12 15 9 15 18 25 26 27 28 28 29 31 41 51 59 64 65 65 65 66 65 65 65 65 66 66 66 65 63 62 62 62 62 62 63 63 64 63 62 62 62 62
21 18 14 9 2 5 8 4 2 7 15 10 10 18 22 27 28 28 31 31 39 55 62 65 65 65 66 65 65 65 65 65 65 65 66 64 64 63 62 62 62 62 63 63 61 60 60 61 62
15 11 7 8 8 6 5 3 5 8 6 6 7 6 9 21 26 27 28 27 38 48 61 65 66 66 66 66 66 65 66 66 65 65 65 66 65 63 63 63 63 62 62 61 60 59 59 59 60
11 9 10 11 11 13 9 9 9 10 8 7 5 4 6 11 18 22 27 28 28 48 58 64 66 66 66 66 66 66 65 65 66 66 65 65 65 64 63 63 62 63 62 61 60 58 59 58 59
10 10 10 9 11 11 11 10 11 12 12 11 11 10 6 3 8 17 25 28 27 33 54 61 65 66 67 66 66 66 65 65 66 66 66 65 66 65 63 63 62 63 62 61 60 58 58 58 59
12 10 9 8 9 10 13 14 14 15 14 13 12 11 10 7 5 8 17 27 28 29 36 56 63 65 66 66 65 65 65 65 65 66 66 66 65 64 63 63 62 62 62 61 60 57 58 57 59
12 10 9 11 13 16 16 15 15 15 14 14 12 11 8 6 4 9 15 18 29 30 33 43 59 63 66 66 65 65 65 65 65 66 66 66 65 64 64 62 62 63 62 60 59 58 56 58 60
10 10 11 15 15 14 13 12 11 13 13 14 15 14 12 12 6 4 6 12 21 27 30 42 54 61 65 66 65 64 63 63 64 65 65 65 65 64 64 63 62 63 62 61 60 60 58 57 59
12 15 15 13 13 12 16 13 16 16 15 14 13 13 12 12 7 5 7 9 14 21 31 33 51 60 64 66 65 64 63 63 64 64 65 65 65 65 64 64 63 63 63 62 61 60 60 59 58
12 16 16 16 16 15 16 16 15 15 13 13 14 13 12 8 5 5 8 8 12 20 35 35 45 59 63 65 65 64 63 63 63 65 65 64 65 65 65 64 63 63 63 62 61 60 60 59 58
17 17 19 21 19 16 17 17 14 14 13 15 15 13 12 9 6 6 8 9 17 47 46 52 48 59 63 65 65 64 63 63 63 63 63 64 64 64 64 64 63 63 63 62 61 61 60 59 59
17 17 17 15 13 10 14 19 17 18 17 13 14 13 13 12 11 14 11 11 46 51 54 56 60 62 65 65 65 64 63 63 63 63 62 63 63 63 63 63 63 63 63 63 62 61 60 60 59
17 26 20 14 11 14 20 18 15 17 29 32 28 14 37 49 50 51 52 53 54 54 56 58 60 61 64 65 64 64 63 63 62 62 62 62 62 62 63 63 63 63 62 62 62 62 61 60 60
20 22 22 24 23 20 16 18 16 23 37 40 42 43 48 49 49 51 51 52 53 54 55 56 59 60 61 61 61 61 62 62 62 62 62 62 62 62 62 62 62 62 62 62 62 61 61 60 60
24 22 21 26 16 12 16 15 16 23 35 36 40 42 42 47 49 50 50 51 51 52 53 54 56 57 59 60 61 61 61 61 61 61 60 60 61 60 61 61 61 61 61 61 61 61 61 60 60
18 20 23 25 24 19 16 13 20 32 36 38 41 42 45 47 49 50 49 49 49 50 50 50 51 53 56 58 59 60 60 61 60 61 60 60 60 61 61 60 60 60 59 59 60 60 60 60 60
19 17 21 23 19 20 23 19 33 39 39 41 40 42 46 47 47 47 46 45 45 45 46 47 48 49 51 56 57 58 60 58 59 59 60 60 60 61 60 60 59 58 58 58 59 58 59 58 58

GFSSGP_sfc_dewp_132.txt.gz
Dewpoint
52 49 42 31 17 16 12 7 18 13 15 18 19 23 32 38 41 39 57 61 66 68 70 71 71 72 72 72 72 72 72 73 73 73 73 73 73 73 73 73 73 73 73 72 72 72 71 71 71
47 44 36 28 12 1 -5 14 16 15 17 20 20 23 28 34 48 54 57 64 66 69 70 71 71 71 72 72 72 72 72 73 73 73 73 73 73 73 73 73 72 73 72 72 71 71 72 71 71
48 43 35 24 17 4 1 11 15 16 18 17 17 23 31 40 50 53 54 66 68 68 69 70 70 71 71 72 72 72 72 72 72 72 73 73 73 72 72 71 71 72 72 72 71 71 71 71 70
38 39 35 27 21 18 14 15 17 18 20 20 23 24 27 41 51 53 64 67 67 68 69 69 69 70 71 72 72 72 72 71 71 72 72 73 72 71 70 70 71 72 72 72 72 71 71 69 69
37 36 32 28 27 24 19 19 19 21 22 25 25 27 28 40 53 60 64 65 65 67 68 68 68 69 71 72 72 72 71 71 71 71 72 72 71 71 69 69 70 71 71 71 71 70 69 69 69
33 32 28 25 26 23 23 23 24 26 24 25 26 27 27 40 52 56 62 63 65 66 67 68 69 69 70 71 71 71 70 70 70 70 71 71 71 70 69 69 70 70 69 69 69 69 69 68 68
32 31 28 26 24 28 28 27 26 24 25 25 25 24 26 36 48 57 59 62 64 65 66 66 67 69 69 69 69 69 69 69 70 69 69 69 69 69 68 68 68 68 68 68 68 68 68 68 67
39 35 31 31 28 28 29 27 27 26 26 28 27 26 26 36 54 62 64 63 62 64 65 66 68 69 68 68 68 68 68 68 68 68 68 68 68 68 67 66 67 68 68 67 68 68 67 67 66
30 27 27 29 27 28 28 28 29 29 27 28 28 30 30 48 62 62 62 62 62 64 65 66 66 67 67 67 68 68 68 68 68 68 67 66 66 66 66 65 67 67 67 67 67 67 66 65 65
24 26 27 28 28 27 28 26 25 25 24 26 27 32 30 52 57 59 59 59 59 60 64 64 65 66 67 68 67 66 68 68 68 67 66 65 64 64 64 64 66 66 66 67 67 66 65 65 64
28 21 24 21 23 15 19 19 21 23 21 22 19 26 24 30 50 56 59 61 61 61 62 63 64 65 66 66 67 65 66 68 68 65 65 63 63 63 63 62 64 64 65 66 66 65 64 64 64
14 14 14 13 15 12 9 14 16 13 12 19 23 19 23 29 30 50 55 58 61 62 62 63 65 64 65 66 66 66 67 67 67 66 63 63 62 62 62 62 62 62 62 64 64 64 64 63 63
12 13 16 15 16 10 10 8 10 8 11 16 19 22 27 28 28 32 43 53 58 61 63 63 64 64 64 65 65 65 66 65 66 66 63 62 61 61 61 61 62 61 62 63 63 64 63 62 62
18 18 19 15 10 7 8 10 10 8 9 10 13 13 16 23 27 28 30 32 52 57 62 64 64 65 64 64 64 64 64 65 65 66 64 62 61 61 61 61 61 62 62 63 63 62 62 61 62
21 15 11 10 9 7 11 3 5 11 12 13 12 11 10 8 12 24 28 30 32 48 60 64 64 64 65 64 64 64 64 64 64 64 65 62 61 61 61 62 62 63 63 63 62 61 60 61 63
12 10 10 12 12 11 10 6 10 11 10 9 13 12 12 12 11 8 21 27 29 33 48 63 64 64 64 64 64 64 64 64 64 64 65 64 62 62 61 62 62 63 62 62 61 60 59 59 61
12 9 9 10 11 9 7 4 3 9 12 12 13 13 12 12 11 12 9 19 23 29 35 60 64 64 64 64 64 64 64 64 64 64 64 65 64 62 62 62 62 62 61 60 60 58 59 58 59
9 9 10 10 10 9 8 9 10 13 15 15 15 14 13 12 11 10 11 11 17 27 33 51 64 65 64 64 64 64 64 63 64 64 64 64 64 63 62 62 62 62 62 60 59 58 57 58 59
12 11 10 9 9 11 11 14 15 14 14 14 15 16 15 14 14 12 11 10 10 17 29 47 63 65 65 65 64 63 63 63 64 64 64 64 64 64 63 62 62 63 62 61 60 57 57 57 59
11 10 9 10 13 13 12 11 11 13 14 15 15 14 15 14 14 14 12 10 20 24 30 33 59 64 65 65 64 64 63 64 64 64 64 64 65 64 64 62 62 62 62 61 59 58 56 57 59
12 11 11 12 14 13 12 10 8 12 16 17 17 17 17 15 15 15 15 12 10 17 24 30 38 61 65 65 65 64 65 65 64 64 64 64 64 64 64 63 62 63 62 61 60 59 58 57 59
11 14 15 14 13 10 15 11 13 15 16 17 22 24 17 16 15 15 15 14 9 10 18 29 32 47 63 65 65 64 63 62 63 63 64 64 64 64 64 63 62 63 62 62 60 60 59 58 57
12 17 17 14 15 16 16 14 16 16 16 17 32 38 31 17 17 15 14 13 9 8 16 27 31 43 56 64 64 64 63 63 63 64 64 64 65 65 64 63 63 63 63 62 61 60 59 59 58
16 17 17 21 19 14 16 15 13 16 17 25 36 40 42 42 16 15 14 12 8 13 32 34 34 45 57 63 64 64 63 62 63 64 64 63 64 65 64 64 64 63 63 62 61 61 60 59 59
17 20 14 11 9 7 12 16 17 22 19 34 36 39 39 44 42 38 36 28 10 33 41 47 39 46 58 62 64 64 63 63 63 63 63 63 63 64 64 64 63 63 63 62 62 61 60 60 59
22 22 14 4 10 10 17 17 20 18 27 33 39 37 43 44 49 50 49 51 51 52 53 54 56 57 60 63 64 65 64 64 63 63 63 63 64 64 65 64 64 63 63 63 62 61 61 60 60
17 17 21 14 20 18 16 15 15 30 33 38 39 38 42 46 48 47 48 49 51 52 55 59 60 61 63 64 65 64 64 63 63 63 63 63 63 63 63 64 63 63 63 63 62 61 61 60 60
20 20 15 22 13 10 11 12 18 30 33 35 37 41 42 43 44 45 46 46 48 48 50 53 55 57 59 61 63 63 63 62 62 63 62 62 63 62 62 63 62 62 62 62 62 61 61 60 60
17 17 21 23 22 17 15 14 26 30 32 35 39 41 41 41 42 43 43 45 45 45 45 46 49 51 54 58 60 61 61 61 61 61 61 61 61 61 61 62 62 61 61 61 61 60 60 60 60
18 17 21 19 15 23 23 18 25 26 32 35 39 40 39 38 38 39 40 42 43 41 42 42 44 46 48 51 54 56 59 60 60 60 59 60 59 60 60 60 60 60 60 60 60 59 59 60 59